GW6592 Weather Reports


time (UTC)temp
F
wind
direction
speed
knots
gust
knots
rain 1hr
in
rain 24hr
in
rain mn
in
humidity
%
barometer
mb
20260902170823 93 325 0.0 1.7 0.00 0.00 0.00 54 1017.4
20260902170318 93 315 0.0 2.6 0.00 0.00 0.00 55 1017.5
20260902165814 92 120 0.9 5.2 0.00 0.00 0.00 56 1017.6
20260902165313 92 54 0.0 1.7 0.00 0.00 0.00 56 1017.6
20260902164808 92 210 0.0 2.6 0.00 0.00 0.00 56 1017.7
20260902164303 92 138 1.7 3.5 0.00 0.00 0.00 54 1017.5
20260902163757 92 205 0.0 1.7 0.00 0.00 0.00 57 1017.6
20260902163257 92 195 0.0 1.7 0.00 0.00 0.00 55 1017.7
20260902162755 92 317 0.9 2.6 0.00 0.00 0.00 56 1017.6
20260902162250 92 153 4.3 4.3 0.00 0.00 0.00 56 1017.8
20260902161745 92 140 1.7 1.7 0.00 0.00 0.00 54 1017.6
20260902161241 92 173 0.0 1.7 0.00 0.00 0.00 56 1017.8
20260902160737 92 345 0.0 2.6 0.00 0.00 0.00 60 1017.8
20260902160232 92 60 0.0 1.7 0.00 0.00 0.00 58 1018.0
20260902155730 92 218 0.0 1.7 0.00 0.00 0.00 57 1017.8
20260902155229 92 229 0.9 2.6 0.00 0.00 0.00 58 1017.9
20260902154724 92 137 0.0 1.7 0.00 0.00 0.00 57 1017.8
20260902154225 91 150 0.0 1.7 0.00 0.00 0.00 57 1017.9
20260902153723 92 172 2.6 2.6 0.00 0.00 0.00 56 1017.9
20260902153218 92 105 0.0 1.7 0.00 0.00 0.00 55 1017.9
20260902152714 93 269 0.0 1.7 0.00 0.00 0.00 56 1018.0
20260902152210 93 159 1.7 3.5 0.00 0.00 0.00 55 1018.0
20260902151705 92 104 0.0 1.7 0.00 0.00 0.00 56 1017.7
20260902151159 92 250 1.7 3.5 0.00 0.00 0.00 56 1018.0
20260902150654 92 351 1.7 2.6 0.00 0.00 0.00 57 1017.8
20260902150150 92 242 1.7 1.7 0.00 0.00 0.00 56 1018.1
20260902145649 91 168 0.0 1.7 0.00 0.00 0.00 58 1018.3
20260902145149 90 192 1.7 1.7 0.00 0.00 0.00 59 1018.1
20260902144646 90 324 1.7 2.6 0.00 0.00 0.00 60 1018.1
20260902144141 89 190 1.7 4.3 0.00 0.00 0.00 61 1017.9
20260902143636 88 20 0.0 0.9 0.00 0.00 0.00 64 1018.0
20260902143137 86 329 0.9 0.9 0.00 0.00 0.00 67 1017.8
20260902142632 85 269 0.0 1.7 0.00 0.00 0.00 68 1018.1
20260902142128 85 117 0.0 3.5 0.00 0.00 0.00 69 1017.8
20260902141627 84 261 0.0 1.7 0.00 0.00 0.00 69 1017.9
20260902141123 84 167 0.0 1.7 0.00 0.00 0.00 69 1018.1
20260902140618 83 235 0.9 0.9 0.00 0.00 0.00 71 1017.9
20260902140114 83 263 0.0 2.6 0.00 0.00 0.00 71 1018.4
20260902135613 83 117 0.0 0.9 0.00 0.00 0.00 71 1018.4
20260902135108 83 135 0.0 1.7 0.00 0.00 0.00 72 1018.6
20260902134603 83 62 0.0 1.7 0.00 0.00 0.00 72 1018.5
20260902134103 82 187 0.0 0.9 0.00 0.00 0.00 73 1018.3
20260902133558 82 327 0.9 1.7 0.00 0.00 0.00 72 1018.6
20260902133058 82 148 0.0 0.9 0.00 0.00 0.00 72 1018.6
20260902132553 82 113 0.0 1.7 0.00 0.00 0.00 73 1018.6
20260902132049 82 26 0.0 1.7 0.00 0.00 0.00 72 1018.3
20260902131545 82 233 0.0 1.7 0.00 0.00 0.00 72 1018.5
20260902131045 83 22 0.0 0.9 0.00 0.00 0.00 71 1018.5
20260902130541 83 95 0.0 0.9 0.00 0.00 0.00 71 1018.4
20260902130036 84 107 0.0 1.7 0.00 0.00 0.00 69 1018.0
20260902125532 84 85 0.0 1.7 0.00 0.00 0.00 70 1018.4
20260902125028 83 27 0.9 0.9 0.00 0.00 0.00 72 1018.4
20260902124525 81 58 0.0 1.7 0.00 0.00 0.00 75 1018.3
20260902124024 79 135 0.0 0.9 0.00 0.00 0.00 79 1018.3
20260902123520 78 96 0.9 1.7 0.00 0.00 0.00 81 1018.5
20260902123021 77 66 0.0 1.7 0.00 0.00 0.00 83 1018.5
20260902122520 77 62 0.0 1.7 0.00 0.00 0.00 83 1018.3
20260902122015 76 124 0.0 0.9 0.00 0.00 0.00 84 1018.6
20260902121510 76 111 0.0 0.9 0.00 0.00 0.00 84 1018.4
20260902121005 76 47 0.0 0.9 0.00 0.00 0.00 85 1018.1
20260902120502 75 133 0.9 1.7 0.00 0.00 0.00 85 1018.3
20260902120001 75 113 0.0 1.7 0.00 0.00 0.00 86 1018.5
20260902115457 75 68 0.0 1.7 0.00 0.00 0.00 87 1018.5
20260902114954 75 141 0.0 0.9 0.00 0.00 0.00 87 1018.3
20260902114449 74 107 0.0 0.9 0.00 0.00 0.00 87 1018.3
20260902113944 74 80 0.0 1.7 0.00 0.00 0.00 87 1018.3
20260902113440 74 132 0.0 1.7 0.00 0.00 0.00 87 1018.1
20260902112939 74 84 0.9 1.7 0.00 0.00 0.00 87 1018.3
20260902112436 74 59 0.0 1.7 0.00 0.00 0.00 87 1018.0
20260902111932 74 70 0.0 0.9 0.00 0.00 0.00 87 1017.9
20260902111428 74 89 0.0 1.7 0.00 0.00 0.00 87 1017.9
20260902110924 74 87 0.0 0.9 0.00 0.00 0.00 87 1018.1
20260902110420 74 98 0.9 1.7 0.00 0.00 0.00 87 1017.9
20260902105919 75 117 0.0 0.9 0.00 0.00 0.00 86 1017.8
20260902105415 75 94 0.0 0.9 0.00 0.00 0.00 86 1017.7
20260902104910 75 89 0.0 1.7 0.00 0.00 0.00 86 1017.9
20260902104406 75 113 0.0 1.7 0.00 0.00 0.00 86 1017.7
20260902103905 75 89 0.0 0.9 0.00 0.00 0.00 85 1017.6
20260902103400 75 126 0.0 0.9 0.00 0.00 0.00 85 1017.6
20260902102855 75 72 0.0 0.9 0.00 0.00 0.00 85 1017.4
20260902102353 75 44 0.0 0.9 0.00 0.00 0.00 84 1017.4
20260902101848 76 129 0.0 1.7 0.00 0.00 0.00 84 1017.4
20260902101343 76 102 0.0 1.7 0.00 0.00 0.00 84 1017.5
20260902100842 76 89 0.0 1.7 0.00 0.00 0.00 84 1017.4
20260902100342 76 111 0.9 0.9 0.00 0.00 0.00 84 1017.5
20260902095837 76 49 0.9 0.9 0.00 0.00 0.00 84 1017.4
20260902095331 76 89 0.9 1.7 0.00 0.00 0.00 84 1017.5
20260902094831 76 63 0.0 0.9 0.00 0.00 0.00 83 1017.3
20260902094327 76 94 0.0 0.9 0.00 0.00 0.00 83 1017.2
20260902093827 76 113 0.0 0.9 0.00 0.00 0.00 83 1017.3
20260902093322 76 145 0.0 0.9 0.00 0.00 0.00 82 1017.4
20260902092821 76 121 0.9 0.9 0.00 0.00 0.00 82 1017.3
20260902092317 76 89 0.0 0.9 0.00 0.00 0.00 82 1017.3
20260902091816 77 135 0.0 1.7 0.00 0.00 0.00 82 1017.3
20260902091312 77 122 0.0 0.9 0.00 0.00 0.00 82 1017.3
20260902090809 77 195 0.0 1.7 0.00 0.00 0.00 82 1017.2
20260902090308 77 50 0.0 0.0 0.00 0.00 0.00 82 1017.3
20260902085808 77 70 0.0 1.7 0.00 0.00 0.00 82 1017.2
20260902085306 77 112 0.9 1.7 0.00 0.00 0.00 82 1017.2
20260902084759 77 29 0.9 1.7 0.00 0.00 0.00 83 1017.1
20260902084255 77 85 0.9 1.7 0.00 0.00 0.00 83 1017.1
20260902083750 77 68 0.0 1.7 0.00 0.00 0.00 83 1017.1
20260902083249 77 79 0.0 1.7 0.00 0.00 0.00 83 1017.0
20260902082744 77 104 0.0 0.9 0.00 0.00 0.00 83 1017.0
20260902082241 77 134 0.9 1.7 0.00 0.00 0.00 83 1016.8
20260902081737 77 119 0.9 1.7 0.00 0.00 0.00 83 1016.9
20260902081233 77 50 0.0 0.0 0.00 0.00 0.00 83 1017.0
20260902080727 77 116 0.0 0.9 0.00 0.00 0.00 83 1016.9
20260902080225 77 104 0.0 0.9 0.00 0.00 0.00 83 1016.8
20260902075723 77 89 0.0 1.7 0.00 0.00 0.00 83 1016.7
20260902075220 77 89 0.0 0.9 0.00 0.00 0.00 83 1016.7
20260902074719 77 89 0.0 0.0 0.00 0.00 0.00 83 1016.8
20260902074215 77 62 0.0 0.0 0.00 0.00 0.00 82 1016.7
20260902073710 77 89 0.0 0.9 0.00 0.00 0.00 82 1016.9
20260902073206 78 96 0.0 0.9 0.00 0.00 0.00 82 1016.8
20260902072702 78 79 0.0 0.0 0.00 0.00 0.00 82 1016.9
20260902072158 78 75 0.0 0.0 0.00 0.00 0.00 81 1017.1
20260902071654 78 114 0.0 0.9 0.00 0.00 0.00 81 1016.9
20260902071149 78 75 0.0 0.0 0.00 0.00 0.00 81 1017.0
20260902070645 78 98 0.0 0.9 0.00 0.00 0.00 80 1016.8
20260902070144 79 62 0.0 0.0 0.00 0.00 0.00 80 1017.0
20260902065643 79 103 0.0 0.9 0.00 0.00 0.00 79 1016.9
20260902065139 79 117 0.0 0.9 0.00 0.00 0.00 79 1017.0
20260902064634 79 114 0.0 1.7 0.00 0.00 0.00 79 1016.7
20260902064130 79 129 0.0 0.9 0.00 0.00 0.00 79 1016.9
20260902063625 79 75 0.0 0.9 0.00 0.00 0.00 79 1016.9
20260902063120 80 110 0.0 0.9 0.00 0.00 0.00 78 1016.8
20260902062619 80 62 0.0 0.9 0.00 0.00 0.00 78 1017.0
20260902062115 80 113 0.9 0.9 0.00 0.00 0.00 78 1016.9
20260902061614 80 103 0.0 0.0 0.00 0.00 0.00 78 1017.0
20260902061110 80 112 0.0 0.9 0.00 0.00 0.00 77 1017.1
20260902060606 80 113 0.0 0.9 0.00 0.00 0.00 77 1016.9
20260902055558 80 129 0.0 0.9 0.00 0.00 0.00 77 1017.0
20260902055053 80 129 0.0 0.9 0.00 0.00 0.00 76 1017.3
20260902054548 80 150 0.0 0.9 0.00 0.00 0.00 76 1017.1
20260902054044 81 76 0.0 0.0 0.00 0.00 0.00 76 1017.0
20260902053539 81 104 0.0 0.0 0.00 0.00 0.00 76 1017.0
20260902053038 81 129 0.0 0.0 0.00 0.00 0.00 76 1016.8
20260902052533 81 101 0.0 0.9 0.00 0.00 0.00 76 1016.8
20260902052029 81 104 0.0 0.9 0.00 0.00 0.00 75 1017.0
20260902051528 81 117 0.0 0.0 0.00 0.00 0.00 75 1016.8
20260902051027 81 49 0.0 0.9 0.00 0.00 0.00 75 1016.9
20260902050522 81 124 1.7 2.6 0.00 0.00 0.00 74 1017.0
20260902050018 82 142 0.0 0.9 0.00 0.00 0.00 74 1016.8
20260902045513 82 89 0.0 0.9 0.00 0.00 0.00 74 1016.7
20260902045010 82 78 0.9 0.9 0.00 0.00 0.00 74 1016.7
20260902044509 82 155 0.0 0.9 0.00 0.00 0.00 74 1016.7
20260902044006 82 89 0.0 0.0 0.00 0.00 0.00 74 1016.8
20260902043500 82 44 0.0 0.0 0.00 0.00 0.00 73 1017.0
20260902042955 82 111 0.0 1.7 0.00 0.00 0.00 73 1016.9
20260902042455 82 141 0.9 1.7 0.00 0.00 0.00 73 1017.0
20260902041950 82 141 0.0 1.7 0.00 0.00 0.00 73 1016.9
20260902041450 82 89 0.0 0.9 0.00 0.00 0.00 73 1016.9
20260902040951 82 104 0.0 1.7 0.00 0.00 0.00 73 1017.1
20260902040450 82 114 0.9 1.7 0.00 0.00 0.00 73 1016.8
20260902035949 82 190 0.0 0.9 0.00 0.00 0.00 73 1017.1
20260902035445 83 124 0.0 0.0 0.00 0.00 0.00 73 1016.9
20260902034944 83 119 0.0 0.9 0.00 0.00 0.00 72 1016.9
20260902034439 83 118 0.0 0.0 0.00 0.00 0.00 72 1016.9
20260902033939 83 121 0.0 1.7 0.00 0.00 0.00 72 1016.8
20260902033438 83 119 0.9 1.7 0.00 0.00 0.00 72 1016.8
20260902032937 83 96 0.9 1.7 0.00 0.00 0.00 73 1016.9
20260902032432 83 154 0.0 0.9 0.00 0.00 0.00 72 1016.9
20260902031927 83 135 0.0 0.0 0.00 0.00 0.00 72 1017.1
20260902031422 83 121 0.0 0.9 0.00 0.00 0.00 72 1017.2
20260902030919 83 62 0.0 1.7 0.00 0.00 0.00 72 1017.0
20260902030418 83 89 0.0 1.7 0.00 0.00 0.00 72 1017.0
20260902025917 83 122 0.0 0.0 0.00 0.00 0.00 73 1017.1
20260902025413 83 116 0.0 0.9 0.00 0.00 0.00 72 1017.0
20260902024908 83 117 0.0 0.9 0.00 0.00 0.00 72 1017.0
20260902024403 84 126 0.0 0.9 0.00 0.00 0.00 72 1017.0
20260902023858 84 135 0.0 0.9 0.00 0.00 0.00 72 1017.0
20260902023354 84 134 1.7 1.7 0.00 0.00 0.00 72 1017.0
20260902022853 84 89 0.0 1.7 0.00 0.00 0.00 72 1016.8
20260902022348 84 89 0.0 0.9 0.00 0.00 0.00 71 1016.9
20260902021845 84 217 0.0 1.7 0.00 0.00 0.00 72 1016.8
20260902021344 84 60 0.0 0.0 0.00 0.00 0.00 71 1016.8
20260902020840 84 150 0.0 0.0 0.00 0.00 0.00 71 1016.7
20260902020336 84 129 0.0 0.9 0.00 0.00 0.00 71 1016.8
20260902015837 83 89 0.0 0.0 0.00 0.00 0.00 71 1016.6
20260902015332 83 104 0.0 0.9 0.00 0.00 0.00 71 1016.7
20260902014828 83 62 0.0 0.0 0.00 0.00 0.00 71 1016.7
20260902014324 83 62 0.0 0.0 0.00 0.00 0.00 70 1016.6
20260902013823 84 124 0.0 0.0 0.00 0.00 0.00 70 1016.6
20260902013319 84 124 0.0 0.0 0.00 0.00 0.00 69 1016.7
20260902012814 84 104 0.0 0.0 0.00 0.00 0.00 69 1016.6
20260902012310 85 104 0.0 0.0 0.00 0.00 0.00 68 1016.4
20260902011806 85 104 0.0 0.0 0.00 0.00 0.00 67 1016.4
20260902011306 85 150 0.0 0.0 0.00 0.00 0.00 66 1016.4
20260902010804 86 50 0.0 0.0 0.00 0.00 0.00 65 1016.5
20260902010300 86 50 0.0 0.0 0.00 0.00 0.00 64 1016.5
20260902005759 87 50 0.0 0.0 0.00 0.00 0.00 63 1016.2
20260902005254 87 50 0.0 0.0 0.00 0.00 0.00 63 1016.4
20260902004749 87 117 0.0 0.0 0.00 0.00 0.00 62 1016.1
20260902004244 88 66 0.0 1.7 0.00 0.00 0.00 61 1016.2
20260902003738 88 75 0.0 0.0 0.00 0.00 0.00 60 1016.2
20260902003234 89 62 0.0 0.9 0.00 0.00 0.00 60 1016.1
20260902002730 89 121 0.9 1.7 0.00 0.00 0.00 59 1016.1
20260902002229 89 44 0.0 0.9 0.00 0.00 0.00 58 1016.2
20260902001725 90 75 0.0 0.9 0.00 0.00 0.00 58 1016.2
20260902001225 90 76 0.0 0.9 0.00 0.00 0.00 57 1016.1
20260902000720 90 163 0.9 1.7 0.00 0.00 0.00 56 1016.4
20260902000215 91 117 0.0 1.7 0.00 0.00 0.00 56 1016.2
20260901235715 91 47 0.0 0.0 0.00 0.00 0.00 55 1016.4
20260901235210 91 142 0.9 1.7 0.00 0.00 0.00 55 1016.3
20260901234709 91 120 0.9 1.7 0.00 0.00 0.00 54 1016.2
20260901234204 92 170 0.0 1.7 0.00 0.00 0.00 54 1016.4
20260901233704 92 89 0.0 1.7 0.00 0.00 0.00 54 1016.3
20260901233200 92 139 0.9 1.7 0.00 0.00 0.00 53 1016.2
20260901232655 93 136 0.9 1.7 0.00 0.00 0.00 53 1016.3
20260901232150 93 255 0.0 2.6 0.00 0.00 0.00 52 1016.4
20260901231647 94 113 0.9 0.9 0.00 0.00 0.00 52 1016.2
20260901231143 94 278 0.9 1.7 0.00 0.00 0.00 51 1016.3
20260901230638 94 157 0.0 0.9 0.00 0.00 0.00 52 1016.3
20260901230138 95 260 0.0 2.6 0.00 0.00 0.00 49 1016.6
20260901225633 96 99 0.0 1.7 0.00 0.00 0.00 49 1016.3
20260901225133 97 304 0.0 1.7 0.00 0.00 0.00 49 1016.4
20260901224630 98 221 0.9 1.7 0.00 0.00 0.00 48 1016.2
20260901224126 98 163 1.7 1.7 0.00 0.00 0.00 46 1016.2
20260901223621 99 69 0.9 1.7 0.00 0.00 0.00 43 1016.2
20260901223116 100 153 0.9 1.7 0.00 0.00 0.00 43 1016.3
20260901222612 99 345 0.0 1.7 0.00 0.00 0.00 45 1016.3
20260901222108 99 258 0.9 1.7 0.00 0.00 0.00 43 1016.1
20260901221603 99 202 0.0 2.6 0.00 0.00 0.00 43 1016.3
20260901221059 100 141 0.9 1.7 0.00 0.00 0.00 43 1016.2
20260901220558 100 299 0.9 1.7 0.00 0.00 0.00 43 1016.1
20260901220057 100 266 1.7 2.6 0.00 0.00 0.00 43 1016.1
20260901215555 100 246 0.0 0.9 0.00 0.00 0.00 45 1016.3
20260901215050 100 153 1.7 1.7 0.00 0.00 0.00 43 1016.2
20260901214549 100 315 0.9 1.7 0.00 0.00 0.00 43 1016.1
20260901214043 100 261 0.0 2.6 0.00 0.00 0.00 43 1016.1
20260901213543 100 248 0.0 0.9 0.00 0.00 0.00 44 1016.1
20260901213043 100 118 0.0 1.7 0.00 0.00 0.00 44 1016.1
20260901212543 99 337 0.0 1.7 0.00 0.00 0.00 44 1016.2
20260901212041 100 257 0.9 3.5 0.00 0.00 0.00 44 1016.2
20260901211541 100 180 2.6 3.5 0.00 0.00 0.00 43 1016.4
20260901211037 100 279 1.7 3.5 0.00 0.00 0.00 43 1016.2
20260901210532 100 210 1.7 3.5 0.00 0.00 0.00 42 1016.4
20260901210028 100 70 0.0 2.6 0.00 0.00 0.00 43 1016.2
20260901205524 100 238 1.7 1.7 0.00 0.00 0.00 43 1016.2
20260901205024 100 263 1.7 2.6 0.00 0.00 0.00 43 1016.3
20260901204520 100 307 0.9 1.7 0.00 0.00 0.00 44 1016.2
20260901204014 100 143 0.9 2.6 0.00 0.00 0.00 43 1016.2
20260901203509 100 130 0.0 2.6 0.00 0.00 0.00 42 1016.2
20260901203004 100 267 0.9 2.6 0.00 0.00 0.00 43 1016.3
20260901202459 100 199 0.0 2.6 0.00 0.00 0.00 43 1016.4
20260901201955 100 191 1.7 3.5 0.00 0.00 0.00 44 1016.1
20260901201450 100 158 1.7 1.7 0.00 0.00 0.00 43 1016.1
20260901200950 100 251 0.9 3.5 0.00 0.00 0.00 44 1016.2
20260901200444 100 304 0.0 2.6 0.00 0.00 0.00 43 1016.2
20260901195943 100 245 0.0 2.6 0.00 0.00 0.00 44 1016.4
20260901195442 99 115 0.0 1.7 0.00 0.00 0.00 45 1016.2
20260901194937 100 264 0.9 2.6 0.00 0.00 0.00 45 1016.4
20260901194432 99 222 0.0 6.1 0.00 0.00 0.00 46 1016.4
20260901193928 99 315 0.0 1.7 0.00 0.00 0.00 46 1016.4
20260901193427 99 120 0.0 2.6 0.00 0.00 0.00 47 1016.6
20260901192927 99 332 0.0 2.6 0.00 0.00 0.00 47 1016.3
20260901192423 99 137 0.9 3.5 0.00 0.00 0.00 47 1016.7
20260901191919 99 80 0.9 1.7 0.00 0.00 0.00 48 1016.5
20260901191415 100 296 5.2 5.2 0.00 0.00 0.00 45 1016.8
20260901190911 99 269 0.0 1.7 0.00 0.00 0.00 46 1016.7
20260901190411 98 293 0.9 1.7 0.00 0.00 0.00 48 1016.7
20260901185909 98 290 1.7 2.6 0.00 0.00 0.00 45 1016.8
20260901185408 98 190 0.0 2.6 0.00 0.00 0.00 44 1016.8
20260901184903 98 301 0.0 1.7 0.00 0.00 0.00 45 1016.8
20260901184358 98 274 1.7 2.6 0.00 0.00 0.00 45 1016.9
20260901183853 98 117 0.9 3.5 0.00 0.00 0.00 45 1016.9
20260901183353 98 207 0.9 1.7 0.00 0.00 0.00 46 1016.9
20260901182849 97 255 1.7 2.6 0.00 0.00 0.00 46 1017.0
20260901182349 97 297 1.7 3.5 0.00 0.00 0.00 48 1017.1
20260901181844 97 291 1.7 5.2 0.00 0.00 0.00 48 1017.1
20260901181345 96 265 0.9 3.5 0.00 0.00 0.00 46 1017.0
20260901180843 96 83 0.9 3.5 0.00 0.00 0.00 46 1017.1
20260901180342 96 107 0.0 3.5 0.00 0.00 0.00 48 1017.1
20260901175841 96 194 2.6 2.6 0.00 0.00 0.00 46 1017.2
20260901175336 96 284 1.7 2.6 0.00 0.00 0.00 48 1017.3
20260901174831 95 220 0.9 4.3 0.00 0.00 0.00 50 1017.2
20260901174327 94 309 0.0 2.6 0.00 0.00 0.00 49 1017.0
20260901173823 94 151 1.7 2.6 0.00 0.00 0.00 48 1017.4
20260901173318 94 280 1.7 1.7 0.00 0.00 0.00 51 1017.3
20260901172814 94 269 0.0 1.7 0.00 0.00 0.00 51 1017.4
20260901172313 93 339 0.0 1.7 0.00 0.00 0.00 53 1017.6
20260901171811 93 133 0.0 2.6 0.00 0.00 0.00 53 1017.5
20260901171311 92 177 0.0 1.7 0.00 0.00 0.00 54 1017.5